Radiation Dose at Monitoring Post of Fukushima Daini Nuclear Power Station
Date,Time,MP-1(microSv/h),MP-2(microSv/h),MP-3(microSv/h),MP-4(microSv/h),MP-5(microSv/h),MP-6(microSv/h),MP-7(microSv/h),Wind Direction,Wind Velocity(m/s),Rain
2017/10/02,00:00,0.342,0.213,0.347,0.328,0.318,0.173,0.103,south-southwest,11.3,No
2017/10/02,00:10,0.340,0.213,0.348,0.329,0.315,0.173,0.103,south-southwest,12.0,No
2017/10/02,00:20,0.344,0.213,0.348,0.327,0.316,0.172,0.102,south-southwest,11.9,No
2017/10/02,00:30,0.340,0.213,0.346,0.330,0.315,0.173,0.103,south-southwest,10.7,No
2017/10/02,00:40,0.341,0.212,0.348,0.326,0.316,0.173,0.102,south-southwest,9.9,No
2017/10/02,00:50,0.339,0.213,0.347,0.329,0.316,0.173,0.102,south-southwest,9.8,No
2017/10/02,01:00,0.343,0.212,0.348,0.327,0.314,0.171,0.102,south-southwest,8.3,No
2017/10/02,01:10,0.339,0.213,0.348,0.329,0.315,0.173,0.103,south-southwest,7.5,No
2017/10/02,01:20,0.343,0.213,0.348,0.329,0.315,0.171,0.101,south-southwest,6.1,No
2017/10/02,01:30,0.339,0.212,0.347,0.327,0.316,0.172,0.102,south-southwest,4.6,No
2017/10/02,01:40,0.341,0.213,0.348,0.329,0.314,0.173,0.102,south-southwest,5.5,No
2017/10/02,01:50,0.340,0.213,0.346,0.328,0.318,0.173,0.103,south-southwest,8.1,No
2017/10/02,02:00,0.341,0.213,0.350,0.330,0.313,0.173,0.102,south-southwest,6.2,No
2017/10/02,02:10,0.339,0.213,0.347,0.328,0.318,0.173,0.102,south-southwest,7.1,No
2017/10/02,02:20,0.341,0.211,0.350,0.331,0.314,0.172,0.101,south-southwest,8.9,No
2017/10/02,02:30,0.339,0.212,0.347,0.328,0.318,0.174,0.102,south-southwest,8.7,No
2017/10/02,02:40,0.342,0.213,0.350,0.329,0.312,0.172,0.102,south-southwest,8.4,No
2017/10/02,02:50,0.339,0.213,0.346,0.326,0.316,0.174,0.103,south-southwest,9.4,No
2017/10/02,03:00,0.342,0.212,0.349,0.329,0.314,0.172,0.102,south-southwest,8.6,No
2017/10/02,03:10,0.338,0.212,0.346,0.326,0.315,0.174,0.102,south-southwest,9.3,No
2017/10/02,03:20,0.342,0.212,0.349,0.330,0.315,0.172,0.102,south-southwest,8.9,No
2017/10/02,03:30,0.339,0.212,0.345,0.327,0.315,0.173,0.103,south-southwest,9.9,No
2017/10/02,03:40,0.341,0.213,0.349,0.330,0.316,0.173,0.102,south-southwest,9.0,No
2017/10/02,03:50,0.338,0.212,0.347,0.328,0.312,0.173,0.102,south-southwest,9.8,No
2017/10/02,04:00,0.343,0.213,0.349,0.329,0.317,0.173,0.102,south-southwest,9.5,No
2017/10/02,04:10,0.339,0.210,0.346,0.330,0.313,0.172,0.102,south-southwest,10.0,No
2017/10/02,04:20,0.342,0.213,0.347,0.327,0.318,0.173,0.102,south-southwest,9.5,No
2017/10/02,04:30,0.340,0.212,0.349,0.329,0.315,0.173,0.103,south-southwest,9.1,No
2017/10/02,04:40,0.342,0.213,0.347,0.327,0.318,0.173,0.102,south-southwest,9.4,No
2017/10/02,04:50,0.339,0.213,0.349,0.330,0.316,0.172,0.102,south-southwest,10.1,No
2017/10/02,05:00,0.342,0.213,0.347,0.327,0.316,0.173,0.102,south-southwest,9.5,No
2017/10/02,05:10,0.339,0.212,0.349,0.330,0.316,0.173,0.103,south-southwest,9.5,No
2017/10/02,05:20,0.343,0.213,0.346,0.328,0.314,0.172,0.103,south-southwest,9.4,No
2017/10/02,05:30,0.340,0.212,0.349,0.330,0.317,0.172,0.102,south-southwest,9.0,No
2017/10/02,05:40,0.339,0.212,0.347,0.329,0.314,0.173,0.103,south-southwest,8.6,No
2017/10/02,05:50,0.341,0.213,0.348,0.329,0.317,0.173,0.101,south-southwest,8.4,No
2017/10/02,06:00,0.339,0.212,0.347,0.328,0.312,0.172,0.102,south-southwest,7.8,No
2017/10/02,06:10,0.342,0.213,0.348,0.326,0.317,0.173,0.102,south-southwest,8.2,No
2017/10/02,06:20,0.339,0.211,0.349,0.331,0.316,0.173,0.102,south-southwest,7.3,No
2017/10/02,06:30,0.343,0.215,0.348,0.327,0.314,0.172,0.102,south-southwest,6.7,No
2017/10/02,06:40,0.340,0.213,0.350,0.330,0.316,0.173,0.102,south-southwest,7.5,No
2017/10/02,06:50,0.341,0.214,0.346,0.327,0.311,0.173,0.102,south-southwest,8.6,No
2017/10/02,07:00,0.338,0.212,0.349,0.327,0.316,0.173,0.101,south-southwest,8.1,No
2017/10/02,07:10,0.340,0.212,0.346,0.329,0.314,0.172,0.102,south-southwest,8.6,No
2017/10/02,07:20,0.340,0.212,0.347,0.325,0.315,0.173,0.102,south-southwest,6.7,No
2017/10/02,07:30,0.338,0.213,0.347,0.329,0.316,0.172,0.102,south-southwest,7.8,No
2017/10/02,07:40,0.341,0.212,0.346,0.326,0.313,0.172,0.102,south-southwest,9.2,No
2017/10/02,07:50,0.338,0.211,0.349,0.328,0.316,0.173,0.101,south-southwest,9.7,No
2017/10/02,08:00,0.341,0.212,0.347,0.329,0.314,0.172,0.102,south-southwest,8.7,No
2017/10/02,08:10,0.339,0.212,0.348,0.326,0.313,0.173,0.102,south,8.6,No
2017/10/02,08:20,0.339,0.213,0.348,0.330,0.317,0.172,0.102,south-southwest,8.9,No
2017/10/02,08:30,0.341,0.211,0.346,0.329,0.315,0.172,0.102,south,9.0,No
2017/10/02,08:40,0.338,0.213,0.351,0.327,0.314,0.173,0.101,south,9.4,No
2017/10/02,08:50,0.340,0.212,0.346,0.330,0.316,0.172,0.101,south,9.5,No
2017/10/02,09:00,0.341,0.213,0.346,0.327,0.313,0.172,0.102,south,8.7,No
2017/10/02,09:10,0.337,0.212,0.348,0.328,0.313,0.175,0.101,south,8.5,No
2017/10/02,09:20,0.342,0.211,0.344,0.329,0.317,0.172,0.101,south,8.1,No
2017/10/02,09:30,0.340,0.212,0.348,0.327,0.313,0.172,0.101,south,7.6,No
2017/10/02,09:40,0.337,0.215,0.349,0.328,0.315,0.173,0.101,south,7.4,No
2017/10/02,09:50,0.342,0.212,0.345,0.330,0.317,0.172,0.102,south,7.8,No
2017/10/02,10:00,0.339,0.213,0.349,0.326,0.315,0.172,0.102,south,7.4,No
2017/10/02,10:10,0.338,0.213,0.348,0.329,0.313,0.173,0.101,south,8.1,No
2017/10/02,10:20,0.342,0.212,0.345,0.329,0.318,0.173,0.102,south,7.5,No
2017/10/02,10:30,0.342,0.211,0.349,0.328,0.315,0.173,0.102,south,7.8,No
2017/10/02,10:40,0.339,0.214,0.349,0.326,0.312,0.172,0.101,south,8.4,No
2017/10/02,10:50,0.337,0.213,0.346,0.330,0.312,0.173,0.101,south-southwest,7.9,No
2017/10/02,11:00,0.342,0.212,0.347,0.331,0.318,0.172,0.102,south,8.4,No
2017/10/02,11:10,0.340,0.211,0.351,0.326,0.316,0.172,0.102,south,7.8,No
2017/10/02,11:20,0.337,0.213,0.347,0.326,0.313,0.173,0.101,south,5.8,No
2017/10/02,11:30,0.339,0.213,0.346,0.330,0.313,0.174,0.100,south-southwest,8.1,No
2017/10/02,11:40,0.344,0.212,0.349,0.330,0.314,0.174,0.100,south-southwest,9.2,No
2017/10/02,11:50,0.340,0.212,0.349,0.326,0.317,0.172,0.100,south-southwest,10.5,No
2017/10/02,12:00,0.337,0.211,0.347,0.326,0.318,0.171,0.100,south-southwest,7.9,No
2017/10/02,12:10,0.337,0.211,0.344,0.325,0.314,0.172,0.101,south-southwest,8.8,No
2017/10/02,12:20,0.341,0.214,0.346,0.330,0.313,0.174,0.101,south-southwest,8.3,No
2017/10/02,12:30,0.341,0.213,0.349,0.330,0.314,0.174,0.100,south-southwest,9.6,No
2017/10/02,12:40,0.340,0.213,0.348,0.328,0.312,0.173,0.100,south-southwest,9.8,No
2017/10/02,12:50,0.337,0.212,0.347,0.328,0.316,0.173,0.101,south-southwest,8.1,No
2017/10/02,13:00,0.337,0.212,0.344,0.326,0.318,0.173,0.100,south-southwest,8.9,No
2017/10/02,13:10,0.337,0.211,0.346,0.330,0.314,0.172,0.100,south-southwest,9.8,No
2017/10/02,13:20,0.343,0.211,0.351,0.331,0.315,0.173,0.101,south-southwest,8.4,No
2017/10/02,13:30,0.343,0.211,0.348,0.328,0.314,0.173,0.101,south-southwest,11.1,No
2017/10/02,13:40,0.339,0.211,0.347,0.327,0.313,0.174,0.102,south,12.1,No
2017/10/02,13:50,0.338,0.213,0.346,0.326,0.314,0.174,0.101,south-southwest,12.4,No
2017/10/02,14:00,0.340,0.214,0.348,0.332,0.319,0.173,0.100,south-southwest,10.9,No
2017/10/02,14:10,0.343,0.215,0.350,0.331,0.317,0.171,0.101,south,10.0,No
2017/10/02,14:20,0.343,0.213,0.348,0.328,0.315,0.170,0.100,south,11.0,No
2017/10/02,14:30,0.340,0.212,0.347,0.325,0.315,0.175,0.102,south,11.4,No
2017/10/02,14:40,0.341,0.214,0.351,0.332,0.317,0.174,0.101,south,11.2,No
2017/10/02,14:50,0.343,0.214,0.349,0.330,0.316,0.173,0.102,south,9.9,No
2017/10/02,15:00,0.341,0.212,0.347,0.327,0.313,0.174,0.105,south,9.9,No
2017/10/02,15:10,0.340,0.212,0.349,0.329,0.320,0.174,0.105,south,9.9,No
2017/10/02,15:20,0.342,0.215,0.350,0.330,0.317,0.173,0.105,south,9.9,No
2017/10/02,15:30,0.344,0.212,0.347,0.328,0.314,0.172,0.106,south,10.4,No
2017/10/02,15:40,0.340,0.211,0.348,0.327,0.316,0.173,0.104,south,11.5,No
2017/10/02,15:50,0.343,0.214,0.349,0.332,0.316,0.173,0.103,south-southwest,9.5,No
2017/10/02,16:00,0.343,0.214,0.347,0.330,0.314,0.173,0.102,south,10.2,No
2017/10/02,16:10,0.340,0.212,0.348,0.329,0.317,0.173,0.103,south-southwest,8.4,No
2017/10/02,16:20,0.340,0.215,0.351,0.331,0.319,0.174,0.102,south-southwest,9.5,No
2017/10/02,16:30,0.343,0.213,0.346,0.330,0.315,0.172,0.103,south,8.2,No
2017/10/02,16:40,0.339,0.213,0.349,0.327,0.316,0.173,0.103,south-southwest,8.9,No
2017/10/02,16:50,0.342,0.214,0.352,0.331,0.318,0.174,0.103,south-southwest,9.3,No
2017/10/02,17:00,0.342,0.213,0.348,0.330,0.312,0.172,0.104,south-southwest,8.7,No
2017/10/02,17:10,0.338,0.212,0.352,0.328,0.317,0.174,0.104,south-southwest,8.2,No
2017/10/02,17:20,0.342,0.214,0.350,0.332,0.317,0.174,0.103,south-southwest,7.9,No
2017/10/02,17:30,0.340,0.213,0.348,0.330,0.314,0.173,0.104,south-southwest,7.1,No
2017/10/02,17:40,0.339,0.214,0.351,0.330,0.318,0.173,0.103,south-southwest,6.2,No
2017/10/02,17:50,0.343,0.213,0.349,0.332,0.315,0.174,0.103,south,5.7,No
2017/10/02,18:00,0.341,0.214,0.348,0.329,0.314,0.172,0.103,south-southwest,7.0,Yes
2017/10/02,18:10,0.341,0.215,0.352,0.329,0.318,0.174,0.103,south-southwest,7.0,Yes
2017/10/02,18:20,0.343,0.213,0.348,0.331,0.315,0.173,0.105,south-southwest,7.5,Yes
2017/10/02,18:30,0.340,0.214,0.350,0.327,0.317,0.173,0.103,south-southwest,8.6,No
2017/10/02,18:40,0.344,0.213,0.349,0.332,0.317,0.174,0.104,south-southwest,7.4,Yes
2017/10/02,18:50,0.342,0.216,0.348,0.331,0.313,0.173,0.105,south-southwest,6.4,Yes
2017/10/02,19:00,0.342,0.213,0.351,0.329,0.319,0.174,0.104,south-southwest,7.8,Yes
2017/10/02,19:10,0.345,0.214,0.350,0.333,0.316,0.175,0.105,south-southwest,8.5,No
2017/10/02,19:20,0.341,0.214,0.349,0.329,0.315,0.174,0.104,south-southwest,9.2,No
2017/10/02,19:30,0.343,0.213,0.352,0.330,0.319,0.175,0.104,south-southwest,10.5,Yes
2017/10/02,19:40,0.342,0.215,0.348,0.332,0.315,0.174,0.104,south-southwest,10.7,No
2017/10/02,19:50,0.340,0.213,0.352,0.327,0.317,0.174,0.103,south-southwest,9.3,Yes
2017/10/02,20:00,0.344,0.215,0.350,0.334,0.318,0.174,0.104,south-southwest,9.7,Yes
2017/10/02,20:10,0.339,0.214,0.350,0.330,0.315,0.174,0.105,south-southwest,10.1,Yes
2017/10/02,20:20,0.344,0.215,0.352,0.329,0.319,0.176,0.105,south-southwest,9.3,Yes
2017/10/02,20:30,0.342,0.214,0.350,0.333,0.316,0.174,0.105,south-southwest,8.9,Yes
2017/10/02,20:40,0.342,0.216,0.353,0.331,0.317,0.175,0.106,south-southwest,9.6,Yes
2017/10/02,20:50,0.345,0.215,0.350,0.333,0.319,0.177,0.105,south-southwest,8.4,Yes
2017/10/02,21:00,0.342,0.216,0.353,0.332,0.316,0.174,0.105,south-southwest,8.5,Yes
2017/10/02,21:10,0.347,0.217,0.353,0.331,0.319,0.177,0.106,south-southwest,7.5,Yes
2017/10/02,21:20,0.344,0.217,0.352,0.335,0.319,0.177,0.108,south-southwest,6.9,Yes
2017/10/02,21:30,0.346,0.217,0.354,0.331,0.319,0.176,0.107,south-southwest,7.8,Yes
2017/10/02,21:40,0.345,0.216,0.351,0.334,0.319,0.178,0.107,south-southwest,8.6,Yes
2017/10/02,21:50,0.342,0.217,0.354,0.332,0.315,0.175,0.106,south-southwest,7.6,No
2017/10/02,22:00,0.346,0.214,0.351,0.333,0.320,0.176,0.105,south-southwest,6.8,No
2017/10/02,22:10,0.341,0.215,0.351,0.333,0.316,0.175,0.105,south-southwest,7.4,No
2017/10/02,22:20,0.343,0.214,0.350,0.329,0.317,0.175,0.105,south-southwest,7.5,No
2017/10/02,22:30,0.342,0.215,0.349,0.333,0.315,0.176,0.105,south-southwest,6.9,No
2017/10/02,22:40,0.343,0.214,0.351,0.329,0.314,0.174,0.105,south,5.6,No
2017/10/02,22:50,0.342,0.214,0.347,0.331,0.318,0.174,0.105,south,5.6,Yes
2017/10/02,23:00,0.340,0.213,0.350,0.330,0.314,0.173,0.104,south-southwest,5.3,No
2017/10/02,23:10,0.342,0.213,0.350,0.329,0.316,0.174,0.103,south-southwest,5.0,No
2017/10/02,23:20,0.339,0.213,0.347,0.332,0.318,0.174,0.104,southwest,4.8,No
2017/10/02,23:30,0.342,0.212,0.352,0.328,0.314,0.172,0.104,south-southwest,8.0,No
2017/10/02,23:40,0.343,0.213,0.347,0.330,0.319,0.173,0.104,south-southwest,7.3,No
2017/10/02,23:50,0.338,0.213,0.351,0.331,0.315,0.173,0.104,south-southwest,8.5,No
